Location: Marseilles
(40.7010°N, 83.3930°W)
Time: 12:03:59
(UTC-04:00)

Cosmos 1459 Rocket - Visible Passes

Search period start: 29 June 2017 00:00
Search period end: 09 July 2017 00:00
Orbit: 938 x 999 km, 83.0° (Epoch: 28 June)

Date Brightness Start Highest point End Pass type
(mag) Time Alt. Az. Time Alt. Az. Time Alt. Az.
29 Jun 4.0 21:44:40 10° N 21:50:57 70° E 21:57:05 10° SSE visible
29 Jun 6.3 23:31:40 10° NW 23:35:24 17° W 23:39:06 10° WSW visible
30 Jun 4.3 22:08:06 10° NNW 22:14:19 68° W 22:20:24 10° S visible
01 Jul 5.3 22:31:49 10° NNW 22:37:32 39° W 22:43:08 10° SSW visible
02 Jul 6.1 22:55:59 10° NW 23:00:35 22° W 23:05:06 10° SW visible
03 Jul 4.1 21:33:01 10° N 21:39:18 88° W 21:45:26 10° S visible
03 Jul 6.6 23:21:26 10° WNW 23:23:29 12° WNW 23:25:31 10° W visible
04 Jul 4.9 21:56:36 10° NNW 22:02:35 50° W 22:08:27 10° SSW visible
05 Jul 5.8 22:20:32 10° NNW 22:25:43 29° W 22:30:49 10° SW visible
06 Jul 6.5 22:45:08 10° NW 22:48:41 16° W 22:52:12 10° WSW visible
08 Jul 5.5 21:45:12 10° NNW 21:50:49 37° W 21:56:20 10° SSW visible
